Location: Chervonnoye
(48.6000°N, 34.4000°E)
Time: 12:30:59
(UTC+00:00)

CAS-4B - Pass Details

Date: 12 December 2021
Orbit: 529 x 539 km, 43.0° (Epoch: 18 January)

Event Time Altitude Azimuth Distance (km) Brightness Sun altitude
Rises 17:08:16 0° 258° (WSW) 2,680 ? -32.1°
Reaches altitude 10° 17:10:37 10° 251° (WSW) 1,787 ? -32.5°
Enters shadow 17:11:41 17° 244° (WSW) 1,413 ? -32.7°
